SCP
0 0 0 0 0 0 0 0 0 0 0 0 0 0 0 0 0 0 0 0 0 1 0 0 0 0 0 0 0 0 0 0 0 0 0 0 0 0 0 0 0 0 0 0
0 0 0 0 0 0 0 0 0 0 0 0 0 0 0 0 0 0 0 0 0 1 1 0 0 0 0 0 0 0 0 0 0 0 0 0 0 0 0 0 0 0 0 0
0 0 0 0 0 0 0 0 0 0 0 0 0 0 0 0 0 0 0 0 0 1 1 1 0 0 0 0 0 0 0 0 0 0 0 0 0 0 0 0 0 0 0 0
0 0 0 0 0 0 0 0 0 0 0 0 0 0 0 0 0 0 0 0 0 1 1 1 0 0 0 0 0 0 0 0 0 0 0 0 0 0 0 0 0 0 0 0
0 0 0 0 0 0 0 0 0 0 0 0 0 0 0 0 0 0 0 0 0 0 0 0 0 0 0 0 0 0 0 0 0 0 0 0 0 0 0 0 0 0 0 0
0 0 0 0 0 0 0 0 0 0 0 0 0 0 0 0 0 0 0 0 0 0 0 1 1 0 0 0 0 0 0 0 0 0 0 0 0 0 1 0 0 0 0 0
0 0 0 0 0 0 0 0 0 0 0 0 0 0 0 0 0 0 0 0 0 1 1 1 1 1 0 0 0 0 0 0 0 0 0 0 0 1 1 0 0 0 0 0
0 0 0 0 0 0 0 0 0 0 0 0 0 0 0 0 0 0 0 0 0 1 1 1 1 1 1 1 0 0 0 0 0 0 0 0 0 1 1 0 0 0 0 0
0 0 0 0 0 0 0 0 0 0 0 0 0 0 0 0 1 1 1 0 1 1 1 1 1 1 1 1 1 0 0 0 0 0 0 0 1 1 0 0 0 0 0 0
0 0 0 0 0 0 0 0 0 0 0 0 0 0 1 1 1 1 1 1 1 1 1 1 1 1 1 1 1 1 1 1 1 0 1 1 1 0 0 0 0 0 0 0
1 1 0 0 0 0 0 0 0 0 0 0 0 0 1 1 1 1 1 1 1 1 1 1 1 1 1 1 1 1 1 1 0 0 0 1 1 0 0 0 0 0 0 0
1 1 1 0 0 0 0 0 0 0 0 0 0 0 0 1 1 1 1 1 1 1 1 1 1 1 1 1 1 1 1 1 0 0 0 0 0 0 0 0 0 0 0 0
1 0 0 0 0 0 0 0 0 0 0 0 0 0 0 0 1 1 1 1 1 1 1 1 1 1 1 1 1 1 1 1 0 0 0 0 0 0 0 0 0 0 0 0
0 0 0 0 0 0 0 0 0 0 0 0 0 0 0 0 0 0 1 1 1 1 1 1 1 1 1 1 1 1 1 0 0 0 0 0 0 0 0 0 0 0 0 0
0 0 0 0 0 0 0 0 0 0 0 0 0 0 0 0 0 0 0 0 0 0 0 0 0 1 1 1 1 1 1 0 0 0 0 0 0 0 0 0 0 0 0 0
0 0 0 0 0 0 0 0 0 0 0 0 0 0 0 0 0 0 0 0 0 0 0 0 0 0 1 1 1 1 1 0 0 0 0 0 0 0 0 0 0 0 0 0
0 0 0 0 0 0 0 0 0 0 0 0 0 0 0 0 0 0 0 0 0 0 0 0 0 0 1 1 1 1 0 0 0 0 0 0 0 0 0 0 0 0 0 0
0 0 0 0 0 0 0 0 0 0 0 0 0 0 0 0 0 0 0 0 0 0 0 0 0 0 0 1 1 0 0 0 0 0 0 0 0 0 0 0 0 0 0 0
0 0 0 0 0 0 0 0 0 0 0 0 0 0 0 0 0 0 0 0 0 0 0 0 0 0 0 0 0 0 0 0 0 0 0 0 0 0 0 0 0 0 0 0
0 0 0 0 0 0 0 0 0 0 0 0 0 0 0 0 0 0 0 0 0 0 0 0 0 0 0 0 0 0 0 0 0 0 0 0 0 0 0 0 0 0 0 0
0 0 0 0 0 0 0 0 0 0 0 0 0 0 0 0 0 0 0 0 0 0 0 0 0 0 0 0 0 0 0 0 0 0 0 0 0 0 0 0 0 0 0 0
0 0 0 0 0 0 0 0 0 0 0 0 0 0 0 0 0 0 0 0 0 0 0 0 0 0 0 0 0 0 0 0 0 0 0 0 0 0 0 0 0 0 0 0
0 0 0 0 0 0 0 0 0 0 0 0 0 0 0 0 0 0 0 0 0 0 0 0 0 0 0 0 0 0 0 0 0 0 0 0 0 0 0 0 0 0 0 0
0 0 0 0 0 0 0 0 0 0 0 0 0 0 0 0 0 0 0 0 0 0 0 0 0 0 0 0 0 0 0 0 0 0 0 0 0 0 0 0 0 0 0 0
0 0 0 0 0 0 0 0 0 0 0 0 0 0 0 0 0 0 0 0 0 0 0 0 0 0 0 0 0 0 0 0 0 0 0 0 0 0 0 0 0 0 0 0
0 0 0 0 0 0 0 0 0 0 0 0 0 0 0 0 0 0 0 0 0 0 0 0 0 0 0 0 0 0 0 0 0 0 0 0 0 0 0 0 0 0 0 0
0 0 0 0 0 0 0 0 0 0 0 0 0 0 0 0 0 0 0 0 0 0 0 0 0 0 0 0 0 0 0 0 0 0 0 0 0 0 0 0 0 0 0 0
Wind_Speed
7 9 12 13 13 11 9 8 7 3 3 5 6 6 7 9 9 10 11 10 10 9 7 6 6 5 4 4 3 2 1 2 2 2 2 3 3 4 4 5 6 5 5 5
9 9 10 12 12 11 10 10 8 5 3 4 6 5 6 8 9 9 10 11 11 10 9 7 6 6 5 3 3 3 3 3 2 2 3 3 4 4 4 4 5 5 5 6
10 10 10 10 9 9 9 8 7 4 1 5 6 5 5 6 7 7 9 10 10 10 9 7 6 5 5 4 4 3 3 4 3 3 3 3 5 4 4 5 5 5 5 6
9 9 10 6 5 4 4 3 2 1 4 4 4 5 5 6 7 6 7 8 9 9 9 8 7 6 5 5 4 4 4 4 3 3 4 3 4 4 4 4 5 5 6 7
8 9 9 6 4 4 4 1 2 2 3 5 4 3 4 6 7 6 5 6 7 8 9 8 8 7 6 5 5 5 5 4 3 3 3 4 4 4 4 4 5 6 7 7
9 10 8 2 3 4 3 1 5 5 5 4 1 1 3 7 8 7 7 7 7 8 9 9 7 7 6 6 5 5 4 3 3 3 4 4 5 5 5 4 6 7 7 6
10 10 3 2 2 4 3 2 5 5 4 2 1 2 6 7 8 8 8 8 7 7 7 7 7 6 6 6 5 4 3 2 3 4 4 5 5 4 5 6 6 7 7 7
7 8 1 4 2 3 2 2 3 4 3 2 2 4 6 6 8 8 8 9 9 7 6 6 7 6 6 6 4 3 3 4 4 4 6 6 4 4 5 6 7 7 7 7
1 1 2 2 2 3 2 3 3 3 4 2 1 2 4 6 7 7 8 7 7 8 7 6 6 6 7 5 4 4 4 4 5 5 5 5 6 6 6 6 6 6 5 5
1 2 2 2 2 1 2 4 5 5 5 4 3 2 4 5 5 5 6 6 6 7 7 7 6 6 5 5 5 5 5 5 5 6 7 7 5 5 6 5 5 5 5 5
1 1 2 5 5 6 7 7 7 7 8 7 5 4 4 4 4 4 4 4 4 4 5 6 6 5 5 5 4 5 5 5 6 7 8 6 6 6 6 6 6 6 6 5
2 2 3 4 5 5 5 6 7 8 7 7 6 6 5 5 3 3 3 3 2 2 3 3 4 4 4 3 4 5 5 6 6 6 6 5 5 6 9 10 11 12 12 10
4 4 3 3 3 5 5 6 7 7 7 7 7 6 5 5 4 3 3 2 1 1 1 2 2 3 3 4 4 5 5 6 6 7 6 6 6 6 6 7 10 13 14 14
4 4 4 5 6 7 7 7 7 8 9 8 7 7 6 5 4 3 3 2 2 1 0 1 2 2 2 3 4 5 7 7 7 7 7 7 6 6 6 7 6 5 8 14
4 6 6 6 7 8 8 8 9 9 9 9 9 8 7 6 5 5 4 4 3 2 2 2 2 2 2 3 4 6 7 7 7 7 7 7 7 7 7 7 6 6 5 5
7 8 8 8 8 9 10 11 10 10 9 9 9 8 8 7 6 6 5 4 4 3 3 3 4 4 4 4 5 6 6 10 10 8 8 8 7 7 7 6 6 6 6 5
8 8 8 8 9 9 10 10 10 10 10 9 9 8 8 8 7 6 6 6 4 3 3 3 4 6 6 5 6 6 7 8 9 8 8 8 7 7 6 6 6 6 6 5
10 10 9 8 7 8 8 9 9 9 9 9 9 8 8 8 7 7 7 7 6 4 4 4 5 6 6 5 5 6 8 8 8 7 6 6 6 6 6 6 7 7 6 5
9 9 8 7 7 6 6 7 7 8 8 8 8 7 7 7 8 8 8 8 7 5 4 6 7 7 7 5 6 6 8 9 9 8 7 6 6 7 7 6 6 7 6 6
8 7 6 6 6 6 6 6 6 6 7 7 7 7 7 8 8 8 8 7 5 5 5 6 6 7 7 6 7 8 9 9 9 8 7 6 6 5 5 5 5 5 6 6
5 4 4 4 4 5 6 6 6 6 7 7 7 7 7 7 8 7 7 7 4 5 6 7 5 5 6 7 9 9 9 9 9 8 7 6 6 6 6 5 5 5 5 5
2 3 4 4 5 5 5 5 6 7 7 7 7 8 8 7 8 7 6 5 4 5 6 7 7 6 8 10 9 9 9 9 8 7 6 6 5 5 6 6 6 5 5 4
2 3 4 5 6 6 7 7 7 6 6 7 7 7 8 7 7 7 7 5 5 5 6 7 6 6 9 9 8 8 9 8 7 7 6 6 6 5 6 6 4 4 4 4
3 4 5 6 7 8 8 7 7 6 7 7 7 6 6 6 6 6 7 6 5 5 7 5 5 7 8 7 8 7 7 7 7 7 7 6 6 6 5 4 4 4 5 6
5 6 7 7 7 7 7 7 8 8 7 6 7 7 6 5 6 7 7 9 8 7 8 6 5 6 8 8 7 7 7 6 7 7 8 7 6 6 5 4 4 4 4 5
6 6 6 6 6 6 8 8 7 6 7 7 6 7 7 6 8 8 7 9 11 8 9 7 6 6 7 7 7 7 6 6 7 6 7 6 6 6 4 4 5 4 4 4
7 7 6 7 7 6 7 7 7 7 7 7 7 8 8 8 8 8 9 9 8 8 8 7 7 7 6 6 6 6 6 6 6 6 6 6 5 5 6 6 4 3 3 4
Wind_Direction
250 219 213 239 252 253 248 255 267 266 234 205 172 179 162 158 164 167 162 161 155 152 154 155 160 162 173 169 160 165 204 242 254 262 265 270 277 282 282 283 289 292 293 288
281 263 256 257 254 254 257 261 265 255 239 136 138 149 156 161 169 171 168 168 163 163 163 167 172 174 169 170 169 177 215 241 243 258 272 272 276 274 278 284 289 285 283 286
282 293 286 270 268 259 253 256 266 270 158 130 147 138 147 159 172 175 173 169 166 166 163 164 171 166 168 177 176 193 219 240 244 252 267 276 290 299 297 295 292 288 284 283
273 282 272 276 294 293 280 271 263 146 123 128 125 136 157 168 168 173 172 168 160 161 159 162 164 162 173 182 187 203 217 232 243 253 267 276 282 286 288 287 287 287 286 283
268 269 271 282 320 331 304 297 30 77 95 104 106 144 165 152 148 154 158 147 148 158 159 158 163 165 175 194 203 213 223 226 240 254 270 278 282 285 286 284 285 284 283 279
257 266 275 295 318 326 303 136 43 71 75 76 111 255 111 127 142 147 142 142 151 158 155 155 161 163 180 203 213 223 232 235 245 253 263 271 274 276 280 279 279 280 281 282
258 265 272 74 65 342 282 90 34 44 55 50 59 67 120 140 141 142 142 146 150 154 152 156 158 164 192 212 219 224 233 239 247 250 254 257 257 258 265 272 277 279 280 278
259 268 292 24 53 51 30 344 8 28 23 27 82 124 142 138 140 148 153 160 161 153 151 154 161 174 201 214 215 218 230 242 249 251 262 272 265 262 261 266 273 271 270 272
177 175 113 1 30 70 304 323 346 356 359 6 111 152 140 136 144 152 159 162 163 161 161 164 172 185 207 209 207 219 233 243 252 258 258 262 262 264 265 263 268 273 280 283
155 164 140 104 63 50 28 7 7 6 4 9 20 77 99 112 133 147 159 165 170 171 177 177 182 193 209 209 205 218 236 246 251 253 255 255 250 259 266 272 278 282 290 297
53 142 149 65 37 32 29 20 14 20 25 21 22 48 84 101 116 137 149 155 171 176 183 182 181 193 207 213 209 226 243 253 260 260 260 255 253 250 258 259 260 263 279 287
98 70 56 51 21 18 32 27 23 27 31 36 39 44 61 79 86 100 118 124 145 179 190 189 183 194 203 209 217 231 246 255 265 270 270 269 271 270 253 247 244 236 238 249
64 68 82 73 29 22 36 42 41 37 37 40 40 45 56 68 74 72 72 95 144 184 188 195 208 208 209 213 218 230 249 259 267 273 279 281 278 277 279 261 243 241 243 243
70 81 76 61 48 34 38 47 48 44 43 46 45 44 47 55 61 61 48 30 13 341 267 248 250 244 239 233 231 243 256 262 261 265 269 272 275 278 279 281 281 268 243 237
98 91 85 73 61 47 41 48 52 48 46 45 42 37 33 33 37 35 25 19 8 350 331 301 291 297 297 278 261 261 267 270 268 272 275 276 277 278 279 281 282 285 286 256
105 96 88 78 66 56 51 48 45 41 41 40 37 31 26 24 23 19 15 13 352 334 338 336 334 326 311 295 284 272 265 263 262 270 276 278 277 278 281 284 287 290 291 292
109 98 86 77 67 55 52 49 44 36 33 31 28 27 23 18 12 10 2 355 345 339 339 336 326 317 307 294 288 286 286 282 258 252 260 268 276 282 287 291 291 290 292 291
87 88 81 71 64 56 48 44 41 34 26 19 17 18 14 9 1 354 349 341 328 321 333 343 338 319 302 301 303 296 294 293 290 282 276 275 279 282 284 284 288 292 288 277
95 89 83 73 64 55 44 35 30 24 17 10 6 4 358 354 351 344 341 329 318 327 352 348 331 309 304 314 315 295 291 291 290 287 282 277 270 270 273 278 289 295 299 302
86 76 65 55 47 38 28 20 13 7 1 355 352 350 351 348 340 334 329 318 335 359 348 343 321 312 316 338 329 303 295 293 292 292 289 287 285 287 292 293 296 302 303 302
81 67 50 34 25 16 12 5 354 346 343 341 341 341 341 338 333 331 324 321 354 11 338 322 309 332 345 337 311 301 299 297 296 296 297 298 299 303 304 300 301 302 299 305
60 28 9 1 356 352 349 339 331 329 333 336 335 333 329 323 322 321 320 320 341 15 340 329 337 356 342 322 310 304 301 301 303 304 307 306 304 304 299 296 294 297 301 308
12 357 341 335 330 323 320 315 316 323 324 322 319 318 317 319 314 311 314 334 343 353 330 331 342 334 320 312 310 308 310 313 313 310 308 308 302 294 291 295 304 313 310 311
319 313 313 313 312 305 300 305 312 308 301 296 298 305 310 307 308 313 325 333 331 323 318 319 306 302 299 299 305 309 314 318 318 317 315 308 302 304 307 310 321 323 315 315
298 300 295 295 294 295 300 297 293 289 290 301 309 316 316 322 322 324 324 320 320 308 308 305 294 289 293 303 306 312 318 328 330 326 319 316 318 321 319 323 327 322 320 317
281 280 285 288 287 288 289 290 294 303 307 308 312 318 322 324 318 313 309 313 319 320 312 310 310 300 304 308 314 325 327 326 325 324 327 327 326 323 320 325 327 324 331 336
277 272 265 266 275 283 293 301 304 306 309 310 316 321 318 314 309 310 314 315 317 320 321 320 317 316 316 322 328 329 324 324 325 325 325 330 339 341 335 330 330 331 341 342